GOMX-1

Last updated on Tue Sep 16 2025 00:03:09 GMT+0000 (Coordinated Universal Time)

1 39430U 13066Q 25258.58245530 .00001710 00000+0 27055-3 0 9999 2 39430 97.6720 111.2062 0130360 238.4088 120.4341 14.67998596629603
UTC large
Height (km)
Speed (km/s)
/
Latitude / Longitude
Inclination (degrees)
Orbital Period (minutes)
Azimuth
Elevation
Range (km)
Doppler Factor

Next 0 passes for location: London (51.5072 / 0.1276)

Sorry there are no passes over London.